| time (UTC) | temp C | wind direction | speed KPH | gust KPH | rain 1hr cm | rain 24hr cm | rain mn cm | humidity % | barometer mb |
| 20260510070057 | 21 | 0 | 0.0 | 0.0 | 0.00 | 0.00 | 0.00 | 84 | 1009.4 |
| 20260510065557 | 21 | 0 | 0.0 | 0.0 | 0.00 | 0.00 | 0.00 | 84 | 1009.1 |
| 20260510065055 | 21 | 0 | 0.0 | 0.0 | 0.00 | 0.00 | 0.00 | 83 | 1009.3 |
| 20260510064609 | 22 | 0 | 0.0 | 1.6 | 0.00 | 0.00 | 0.00 | 82 | 1009.3 |
| 20260510064054 | 22 | 0 | 0.0 | 1.6 | 0.00 | 0.00 | 0.00 | 82 | 1009.4 |
| 20260510063554 | 22 | 0 | 0.0 | 3.2 | 0.00 | 0.00 | 0.00 | 81 | 1009.4 |
| 20260510063103 | 22 | 0 | 0.0 | 4.8 | 0.00 | 0.00 | 0.00 | 81 | 1009.3 |
| 20260510062554 | 22 | 0 | 0.0 | 6.4 | 0.00 | 0.00 | 0.00 | 81 | 1009.2 |
| 20260510062054 | 22 | 55 | 0.0 | 6.4 | 0.00 | 0.00 | 0.00 | 80 | 1008.9 |
| 20260510061554 | 22 | 51 | 0.0 | 4.8 | 0.00 | 0.00 | 0.00 | 80 | 1008.9 |
| 20260510061055 | 22 | 232 | 0.0 | 4.8 | 0.00 | 0.00 | 0.00 | 80 | 1009.0 |
| 20260510060555 | 22 | 0 | 1.6 | 4.8 | 0.00 | 0.00 | 0.00 | 79 | 1008.9 |
| 20260510060058 | 22 | 52 | 1.6 | 4.8 | 0.00 | 0.00 | 0.00 | 79 | 1008.8 |
| 20260510055553 | 23 | 0 | 0.0 | 4.8 | 0.00 | 0.00 | 0.00 | 79 | 1008.8 |
| 20260510055055 | 22 | 0 | 0.0 | 6.4 | 0.00 | 0.00 | 0.00 | 79 | 1008.9 |
| 20260510054557 | 22 | 69 | 0.0 | 6.4 | 0.00 | 0.00 | 0.00 | 79 | 1008.8 |
| 20260510054054 | 22 | 0 | 0.0 | 4.8 | 0.00 | 0.00 | 0.00 | 79 | 1008.5 |
| 20260510053555 | 22 | 0 | 0.0 | 3.2 | 0.00 | 0.00 | 0.00 | 78 | 1008.5 |
| 20260510053057 | 22 | 0 | 0.0 | 3.2 | 0.00 | 0.00 | 0.00 | 78 | 1008.5 |
| 20260510052554 | 22 | 207 | 0.0 | 3.2 | 0.00 | 0.00 | 0.00 | 77 | 1008.6 |
| 20260510052054 | 22 | 0 | 0.0 | 3.2 | 0.00 | 0.00 | 0.00 | 77 | 1008.7 |
| 20260510051603 | 22 | 95 | 0.0 | 6.4 | 0.00 | 0.00 | 0.00 | 76 | 1008.6 |
| 20260510051055 | 22 | 0 | 0.0 | 6.4 | 0.00 | 0.00 | 0.00 | 75 | 1008.6 |
| 20260510050554 | 22 | 57 | 0.0 | 6.4 | 0.00 | 0.00 | 0.00 | 75 | 1008.6 |
| 20260510050056 | 22 | 116 | 0.0 | 4.8 | 0.00 | 0.00 | 0.00 | 75 | 1008.5 |
| 20260510045554 | 22 | 61 | 0.0 | 3.2 | 0.00 | 0.00 | 0.00 | 74 | 1008.6 |
| 20260510045054 | 22 | 0 | 0.0 | 3.2 | 0.00 | 0.00 | 0.00 | 74 | 1008.6 |
| 20260510044556 | 22 | 0 | 0.0 | 1.6 | 0.00 | 0.00 | 0.00 | 73 | 1008.8 |
| 20260510044055 | 22 | 0 | 0.0 | 3.2 | 0.00 | 0.00 | 0.00 | 72 | 1008.9 |
| 20260510043555 | 22 | 0 | 0.0 | 3.2 | 0.00 | 0.00 | 0.00 | 72 | 1008.7 |
| 20260510043103 | 22 | 0 | 0.0 | 3.2 | 0.00 | 0.00 | 0.00 | 71 | 1008.7 |
| 20260510042556 | 22 | 0 | 0.0 | 1.6 | 0.00 | 0.00 | 0.00 | 71 | 1008.8 |
| 20260510042054 | 22 | 0 | 0.0 | 0.0 | 0.00 | 0.00 | 0.00 | 71 | 1008.9 |
| 20260510041610 | 22 | 0 | 0.0 | 0.0 | 0.00 | 0.00 | 0.00 | 71 | 1008.9 |
| 20260510041057 | 22 | 0 | 0.0 | 1.6 | 0.00 | 0.00 | 0.00 | 71 | 1008.7 |
| 20260510040555 | 22 | 0 | 0.0 | 1.6 | 0.00 | 0.00 | 0.00 | 70 | 1008.9 |
| 20260510040057 | 22 | 0 | 0.0 | 1.6 | 0.00 | 0.00 | 0.00 | 70 | 1009.0 |
| 20260510035554 | 22 | 0 | 0.0 | 0.0 | 0.00 | 0.00 | 0.00 | 71 | 1009.0 |
| 20260510035054 | 22 | 0 | 0.0 | 0.0 | 0.00 | 0.00 | 0.00 | 70 | 1009.0 |
| 20260510034555 | 22 | 0 | 0.0 | 0.0 | 0.00 | 0.00 | 0.00 | 70 | 1009.0 |
| 20260510034055 | 22 | 0 | 0.0 | 0.0 | 0.00 | 0.00 | 0.00 | 70 | 1009.0 |
| 20260510033554 | 23 | 0 | 0.0 | 0.0 | 0.00 | 0.00 | 0.00 | 69 | 1008.9 |
| 20260510033057 | 23 | 0 | 0.0 | 1.6 | 0.00 | 0.00 | 0.00 | 69 | 1009.0 |
| 20260510032554 | 23 | 0 | 0.0 | 1.6 | 0.00 | 0.00 | 0.00 | 69 | 1008.9 |
| 20260510032058 | 23 | 0 | 0.0 | 0.0 | 0.00 | 0.00 | 0.00 | 69 | 1009.0 |
| 20260510031600 | 23 | 0 | 0.0 | 0.0 | 0.00 | 0.00 | 0.00 | 70 | 1009.0 |
| 20260510031054 | 23 | 0 | 0.0 | 0.0 | 0.00 | 0.00 | 0.00 | 69 | 1008.9 |
| 20260510030554 | 23 | 0 | 0.0 | 0.0 | 0.00 | 0.00 | 0.00 | 69 | 1008.8 |
| 20260510030058 | 23 | 0 | 0.0 | 0.0 | 0.00 | 0.00 | 0.00 | 68 | 1008.8 |
| 20260510025555 | 24 | 0 | 0.0 | 0.0 | 0.00 | 0.00 | 0.00 | 68 | 1008.7 |
| 20260510025059 | 24 | 0 | 0.0 | 0.0 | 0.00 | 0.00 | 0.00 | 67 | 1008.8 |
| 20260510024601 | 25 | 0 | 0.0 | 1.6 | 0.00 | 0.00 | 0.00 | 65 | 1008.8 |
| 20260510024054 | 25 | 0 | 0.0 | 1.6 | 0.00 | 0.00 | 0.00 | 64 | 1008.8 |
| 20260510023555 | 25 | 0 | 0.0 | 1.6 | 0.00 | 0.00 | 0.00 | 64 | 1008.6 |
| 20260510023053 | 25 | 0 | 0.0 | 1.6 | 0.00 | 0.00 | 0.00 | 63 | 1008.6 |
| 20260510022559 | 25 | 0 | 0.0 | 1.6 | 0.00 | 0.00 | 0.00 | 63 | 1008.6 |
| 20260510022053 | 25 | 0 | 0.0 | 1.6 | 0.00 | 0.00 | 0.00 | 63 | 1008.4 |
| 20260510021553 | 26 | 0 | 0.0 | 1.6 | 0.00 | 0.00 | 0.00 | 62 | 1008.3 |
| 20260510021059 | 26 | 136 | 0.0 | 6.4 | 0.00 | 0.00 | 0.00 | 62 | 1008.3 |
| 20260510020555 | 26 | 0 | 0.0 | 6.4 | 0.00 | 0.00 | 0.00 | 62 | 1008.2 |
| 20260510020056 | 26 | 0 | 0.0 | 3.2 | 0.00 | 0.00 | 0.00 | 61 | 1008.1 |
| 20260510015555 | 26 | 0 | 0.0 | 3.2 | 0.00 | 0.00 | 0.00 | 62 | 1008.1 |
| 20260510015054 | 26 | 0 | 0.0 | 3.2 | 0.00 | 0.00 | 0.00 | 60 | 1008.1 |
| 20260510014554 | 27 | 0 | 0.0 | 3.2 | 0.00 | 0.00 | 0.00 | 60 | 1007.9 |
| 20260510014055 | 27 | 0 | 0.0 | 3.2 | 0.00 | 0.00 | 0.00 | 60 | 1007.8 |
| 20260510013555 | 27 | 0 | 0.0 | 3.2 | 0.00 | 0.00 | 0.00 | 59 | 1007.7 |
| 20260510013105 | 27 | 0 | 0.0 | 3.2 | 0.00 | 0.00 | 0.00 | 59 | 1007.7 |
| 20260510012554 | 27 | 79 | 0.0 | 4.8 | 0.00 | 0.00 | 0.00 | 59 | 1007.7 |
| 20260510012054 | 28 | 271 | 0.0 | 4.8 | 0.00 | 0.00 | 0.00 | 59 | 1007.8 |
| 20260510011600 | 28 | 132 | 0.0 | 4.8 | 0.00 | 0.00 | 0.00 | 59 | 1007.6 |
| 20260510011056 | 28 | 0 | 0.0 | 4.8 | 0.00 | 0.00 | 0.00 | 59 | 1007.5 |
| 20260510010557 | 28 | 65 | 0.0 | 3.2 | 0.00 | 0.00 | 0.00 | 59 | 1007.5 |
| 20260510010110 | 28 | 0 | 0.0 | 1.6 | 0.00 | 0.00 | 0.00 | 58 | 1007.5 |
| 20260510005555 | 28 | 0 | 0.0 | 1.6 | 0.00 | 0.00 | 0.00 | 57 | 1007.5 |
| 20260510005054 | 28 | 0 | 0.0 | 3.2 | 0.00 | 0.00 | 0.00 | 56 | 1007.5 |
| 20260510004600 | 29 | 0 | 0.0 | 3.2 | 0.00 | 0.00 | 0.00 | 56 | 1007.4 |
| 20260510004054 | 29 | 0 | 0.0 | 3.2 | 0.00 | 0.00 | 0.00 | 56 | 1007.3 |
| 20260510003555 | 29 | 0 | 0.0 | 6.4 | 0.00 | 0.00 | 0.00 | 56 | 1007.4 |
| 20260510003059 | 30 | 171 | 1.6 | 6.4 | 0.00 | 0.00 | 0.00 | 54 | 1007.4 |
| 20260510002558 | 30 | 0 | 0.0 | 6.4 | 0.00 | 0.00 | 0.00 | 55 | 1007.4 |
| 20260510002054 | 29 | 0 | 0.0 | 4.8 | 0.00 | 0.00 | 0.00 | 55 | 1007.4 |
| 20260510001555 | 30 | 0 | 0.0 | 4.8 | 0.00 | 0.00 | 0.00 | 55 | 1007.4 |
| 20260510001052 | 30 | 0 | 0.0 | 4.8 | 0.00 | 0.00 | 0.00 | 53 | 1007.4 |
| 20260510000553 | 30 | 192 | 0.0 | 1.6 | 0.00 | 0.00 | 0.00 | 54 | 1007.3 |
| 20260510000108 | 29 | 0 | 0.0 | 3.2 | 0.00 | 0.00 | 0.00 | 55 | 1007.4 |
| 20260509235552 | 29 | 0 | 0.0 | 3.2 | 0.00 | 0.00 | 0.00 | 56 | 1007.4 |
| 20260509235052 | 29 | 0 | 0.0 | 1.6 | 0.00 | 0.00 | 0.00 | 54 | 1007.2 |
| 20260509234604 | 30 | 0 | 0.0 | 1.6 | 0.00 | 0.00 | 0.00 | 53 | 1007.3 |
| 20260509234055 | 30 | 0 | 0.0 | 3.2 | 0.00 | 0.00 | 0.00 | 53 | 1007.2 |
| 20260509233556 | 30 | 0 | 0.0 | 3.2 | 0.00 | 0.00 | 0.00 | 53 | 1007.3 |
| 20260509233053 | 30 | 244 | 0.0 | 3.2 | 0.00 | 0.00 | 0.00 | 51 | 1007.3 |
| 20260509232555 | 30 | 0 | 0.0 | 3.2 | 0.00 | 0.00 | 0.00 | 51 | 1007.3 |
| 20260509232055 | 30 | 0 | 0.0 | 3.2 | 0.00 | 0.00 | 0.00 | 52 | 1007.3 |
| 20260509231557 | 30 | 0 | 0.0 | 1.6 | 0.00 | 0.00 | 0.00 | 51 | 1007.4 |
| 20260509231054 | 30 | 0 | 0.0 | 1.6 | 0.00 | 0.00 | 0.00 | 50 | 1007.3 |
| 20260509230554 | 30 | 0 | 0.0 | 1.6 | 0.00 | 0.00 | 0.00 | 50 | 1007.3 |
| 20260509225555 | 30 | 0 | 0.0 | 3.2 | 0.00 | 0.00 | 0.00 | 47 | 1007.5 |
| 20260509225054 | 30 | 0 | 0.0 | 3.2 | 0.00 | 0.00 | 0.00 | 51 | 1007.3 |
| 20260509224601 | 30 | 0 | 0.0 | 3.2 | 0.00 | 0.00 | 0.00 | 50 | 1007.4 |
| 20260509224055 | 30 | 0 | 0.0 | 1.6 | 0.00 | 0.00 | 0.00 | 49 | 1007.4 |
| 20260509223552 | 30 | 0 | 0.0 | 1.6 | 0.00 | 0.00 | 0.00 | 50 | 1007.4 |
| 20260509223054 | 30 | 0 | 0.0 | 3.2 | 0.00 | 0.00 | 0.00 | 51 | 1007.4 |
| 20260509222552 | 30 | 0 | 0.0 | 3.2 | 0.00 | 0.00 | 0.00 | 50 | 1007.5 |
| 20260509222052 | 30 | 0 | 0.0 | 3.2 | 0.00 | 0.00 | 0.00 | 49 | 1007.4 |
| 20260509221612 | 31 | 0 | 0.0 | 1.6 | 0.00 | 0.00 | 0.00 | 51 | 1007.4 |
| 20260509221055 | 31 | 232 | 0.0 | 3.2 | 0.00 | 0.00 | 0.00 | 51 | 1007.4 |
| 20260509220555 | 30 | 0 | 0.0 | 3.2 | 0.00 | 0.00 | 0.00 | 49 | 1007.5 |
| 20260509220105 | 30 | 0 | 0.0 | 3.2 | 0.00 | 0.00 | 0.00 | 50 | 1007.5 |
| 20260509215555 | 31 | 0 | 0.0 | 3.2 | 0.00 | 0.00 | 0.00 | 50 | 1007.5 |
| 20260509215055 | 31 | 0 | 0.0 | 3.2 | 0.00 | 0.00 | 0.00 | 50 | 1007.5 |
| 20260509214602 | 31 | 0 | 0.0 | 3.2 | 0.00 | 0.00 | 0.00 | 48 | 1007.6 |
| 20260509214055 | 31 | 0 | 0.0 | 3.2 | 0.00 | 0.00 | 0.00 | 49 | 1007.7 |
| 20260509213554 | 31 | 0 | 0.0 | 4.8 | 0.00 | 0.00 | 0.00 | 48 | 1007.7 |
| 20260509213102 | 31 | 320 | 0.0 | 4.8 | 0.00 | 0.00 | 0.00 | 46 | 1007.9 |
| 20260509212554 | 31 | 0 | 0.0 | 6.4 | 0.00 | 0.00 | 0.00 | 48 | 1007.7 |
| 20260509212057 | 31 | 0 | 0.0 | 6.4 | 0.00 | 0.00 | 0.00 | 45 | 1008.0 |
| 20260509211557 | 31 | 0 | 0.0 | 6.4 | 0.00 | 0.00 | 0.00 | 46 | 1008.1 |
| 20260509211055 | 31 | 61 | 1.6 | 6.4 | 0.00 | 0.00 | 0.00 | 46 | 1008.1 |
| 20260509210553 | 31 | 179 | 0.0 | 4.8 | 0.00 | 0.00 | 0.00 | 47 | 1008.2 |
| 20260509210104 | 31 | 198 | 0.0 | 3.2 | 0.00 | 0.00 | 0.00 | 47 | 1008.2 |
| 20260509205554 | 32 | 0 | 0.0 | 3.2 | 0.00 | 0.00 | 0.00 | 52 | 1008.3 |
| 20260509205052 | 32 | 0 | 0.0 | 3.2 | 0.00 | 0.00 | 0.00 | 53 | 1008.4 |
| 20260509204601 | 32 | 0 | 0.0 | 3.2 | 0.00 | 0.00 | 0.00 | 57 | 1008.5 |
| 20260509204052 | 32 | 0 | 0.0 | 3.2 | 0.00 | 0.00 | 0.00 | 53 | 1008.5 |
| 20260509203554 | 31 | 352 | 0.0 | 3.2 | 0.00 | 0.00 | 0.00 | 50 | 1008.6 |
| 20260509203058 | 31 | 0 | 0.0 | 1.6 | 0.00 | 0.00 | 0.00 | 50 | 1008.8 |
| 20260509202557 | 31 | 0 | 0.0 | 3.2 | 0.00 | 0.00 | 0.00 | 50 | 1008.7 |
| 20260509202058 | 32 | 0 | 0.0 | 3.2 | 0.00 | 0.00 | 0.00 | 54 | 1008.8 |
| 20260509201554 | 32 | 0 | 0.0 | 3.2 | 0.00 | 0.00 | 0.00 | 48 | 1008.8 |
| 20260509201054 | 32 | 0 | 0.0 | 3.2 | 0.00 | 0.00 | 0.00 | 57 | 1008.8 |
| 20260509200554 | 31 | 196 | 0.0 | 3.2 | 0.00 | 0.00 | 0.00 | 49 | 1008.9 |
| 20260509200105 | 32 | 0 | 0.0 | 3.2 | 0.00 | 0.00 | 0.00 | 56 | 1009.1 |
| 20260509195557 | 31 | 24 | 0.0 | 3.2 | 0.00 | 0.15 | 0.00 | 57 | 1009.0 |
| 20260509195056 | 31 | 0 | 0.0 | 3.2 | 0.00 | 0.15 | 0.00 | 51 | 1009.1 |
| 20260509194556 | 31 | 120 | 0.0 | 8.0 | 0.00 | 0.15 | 0.00 | 51 | 1009.4 |
| 20260509194054 | 31 | 114 | 1.6 | 8.0 | 0.00 | 0.15 | 0.00 | 52 | 1009.3 |
| 20260509193556 | 31 | 13 | 0.0 | 8.0 | 0.00 | 0.15 | 0.00 | 51 | 1009.2 |
| 20260509193108 | 31 | 5 | 0.0 | 4.8 | 0.00 | 0.15 | 0.00 | 54 | 1009.4 |
| 20260509192554 | 30 | 53 | 1.6 | 4.8 | 0.00 | 0.15 | 0.00 | 55 | 1009.6 |
| 20260509192059 | 30 | 126 | 0.0 | 3.2 | 0.00 | 0.15 | 0.00 | 56 | 1009.4 |
| 20260509191613 | 31 | 0 | 0.0 | 4.8 | 0.00 | 0.15 | 0.00 | 52 | 1009.6 |
| 20260509191053 | 30 | 46 | 0.0 | 4.8 | 0.00 | 0.15 | 0.00 | 56 | 1009.6 |
| 20260509190553 | 30 | 0 | 0.0 | 4.8 | 0.00 | 0.15 | 0.00 | 60 | 1009.5 |
| 20260509190112 | 30 | 0 | 0.0 | 3.2 | 0.00 | 0.15 | 0.00 | 55 | 1009.6 |
| 20260509185555 | 30 | 64 | 0.0 | 4.8 | 0.00 | 0.15 | 0.00 | 57 | 1009.8 |
| 20260509185054 | 30 | 0 | 0.0 | 4.8 | 0.00 | 0.15 | 0.00 | 54 | 1009.7 |
| 20260509184555 | 30 | 46 | 0.0 | 4.8 | 0.00 | 0.15 | 0.00 | 59 | 1009.8 |
| 20260509184054 | 30 | 161 | 0.0 | 3.2 | 0.00 | 0.15 | 0.00 | 53 | 1009.7 |
| 20260509183554 | 30 | 0 | 0.0 | 4.8 | 0.00 | 0.15 | 0.00 | 57 | 1009.9 |
| 20260509183059 | 30 | 162 | 0.0 | 4.8 | 0.00 | 0.15 | 0.00 | 60 | 1010.0 |
| 20260509182555 | 30 | 105 | 0.0 | 4.8 | 0.00 | 0.15 | 0.00 | 57 | 1009.9 |
| 20260509182054 | 30 | 27 | 0.0 | 6.4 | 0.00 | 0.15 | 0.00 | 58 | 1010.0 |
| 20260509181555 | 29 | 64 | 0.0 | 6.4 | 0.00 | 0.15 | 0.00 | 60 | 1010.2 |
| 20260509181055 | 30 | 0 | 1.6 | 6.4 | 0.00 | 0.15 | 0.00 | 57 | 1010.3 |
| 20260509180555 | 29 | 31 | 0.0 | 3.2 | 0.00 | 0.15 | 0.00 | 55 | 1010.3 |
| 20260509180058 | 29 | 0 | 0.0 | 3.2 | 0.00 | 0.15 | 0.00 | 58 | 1010.4 |
| 20260509175552 | 29 | 71 | 0.0 | 4.8 | 0.00 | 0.15 | 0.00 | 56 | 1010.5 |
| 20260509175052 | 30 | 0 | 0.0 | 6.4 | 0.00 | 0.15 | 0.00 | 57 | 1010.6 |
| 20260509174554 | 29 | 0 | 0.0 | 6.4 | 0.00 | 0.15 | 0.00 | 61 | 1010.6 |
| 20260509174057 | 29 | 15 | 0.0 | 3.2 | 0.00 | 0.15 | 0.00 | 60 | 1010.6 |
| 20260509173551 | 28 | 0 | 0.0 | 4.8 | 0.00 | 0.15 | 0.00 | 57 | 1010.7 |
| 20260509173104 | 28 | 0 | 0.0 | 4.8 | 0.00 | 0.15 | 0.00 | 59 | 1010.5 |
| 20260509172558 | 28 | 0 | 0.0 | 3.2 | 0.00 | 0.15 | 0.00 | 63 | 1010.7 |
| 20260509172055 | 28 | 0 | 0.0 | 3.2 | 0.00 | 0.15 | 0.00 | 59 | 1010.8 |
| 20260509171618 | 28 | 0 | 0.0 | 4.8 | 0.00 | 0.15 | 0.00 | 57 | 1010.9 |
| 20260509171054 | 28 | 0 | 0.0 | 4.8 | 0.00 | 0.15 | 0.00 | 59 | 1010.8 |
| 20260509170554 | 28 | 106 | 0.0 | 6.4 | 0.00 | 0.15 | 0.00 | 62 | 1010.9 |
| 20260509170059 | 28 | 0 | 0.0 | 6.4 | 0.00 | 0.15 | 0.00 | 60 | 1010.9 |
| 20260509165554 | 28 | 0 | 0.0 | 3.2 | 0.00 | 0.15 | 0.00 | 60 | 1011.1 |
| 20260509165054 | 28 | 0 | 0.0 | 6.4 | 0.00 | 0.15 | 0.00 | 59 | 1011.0 |
| 20260509164556 | 27 | 0 | 1.6 | 6.4 | 0.00 | 0.15 | 0.00 | 64 | 1011.1 |
| 20260509164055 | 27 | 0 | 0.0 | 3.2 | 0.00 | 0.15 | 0.00 | 63 | 1011.3 |
| 20260509163553 | 27 | 111 | 0.0 | 3.2 | 0.00 | 0.15 | 0.00 | 65 | 1011.1 |
| 20260509163059 | 27 | 0 | 0.0 | 3.2 | 0.00 | 0.15 | 0.00 | 65 | 1011.3 |
| 20260509162555 | 27 | 0 | 0.0 | 4.8 | 0.00 | 0.15 | 0.00 | 68 | 1011.0 |
| 20260509162054 | 27 | 0 | 0.0 | 4.8 | 0.00 | 0.15 | 0.00 | 68 | 1011.1 |
| 20260509161558 | 27 | 0 | 1.6 | 6.4 | 0.00 | 0.15 | 0.00 | 67 | 1011.0 |
| 20260509161054 | 27 | 0 | 1.6 | 6.4 | 0.00 | 0.15 | 0.00 | 68 | 1011.1 |
| 20260509160555 | 27 | 221 | 0.0 | 6.4 | 0.00 | 0.15 | 0.00 | 70 | 1011.1 |
| 20260509160057 | 26 | 340 | 0.0 | 6.4 | 0.00 | 0.15 | 0.00 | 69 | 1011.0 |
| 20260509155556 | 26 | 34 | 0.0 | 3.2 | 0.00 | 0.15 | 0.00 | 69 | 1011.0 |
| 20260509155054 | 26 | 0 | 0.0 | 3.2 | 0.00 | 0.15 | 0.00 | 71 | 1011.2 |
| 20260509154557 | 26 | 123 | 0.0 | 4.8 | 0.00 | 0.15 | 0.00 | 72 | 1011.2 |
| 20260509154054 | 25 | 67 | 0.0 | 4.8 | 0.00 | 0.15 | 0.00 | 73 | 1011.1 |
| 20260509153555 | 25 | 98 | 1.6 | 4.8 | 0.00 | 0.15 | 0.00 | 73 | 1011.2 |
| 20260509153058 | 26 | 0 | 0.0 | 4.8 | 0.00 | 0.15 | 0.00 | 71 | 1011.1 |
| 20260509152555 | 26 | 126 | 1.6 | 4.8 | 0.00 | 0.15 | 0.00 | 73 | 1011.2 |
| 20260509152055 | 26 | 40 | 0.0 | 3.2 | 0.00 | 0.15 | 0.00 | 72 | 1011.1 |
| 20260509151600 | 25 | 0 | 0.0 | 6.4 | 0.00 | 0.15 | 0.00 | 74 | 1011.3 |
| 20260509151058 | 25 | 0 | 0.0 | 6.4 | 0.00 | 0.15 | 0.00 | 73 | 1011.2 |
| 20260509150555 | 25 | 346 | 0.0 | 4.8 | 0.00 | 0.15 | 0.00 | 76 | 1011.2 |
| 20260509150058 | 24 | 24 | 1.6 | 4.8 | 0.00 | 0.15 | 0.00 | 75 | 1011.3 |
| 20260509145558 | 25 | 43 | 1.6 | 4.8 | 0.00 | 0.15 | 0.00 | 76 | 1011.3 |
| 20260509145054 | 25 | 51 | 0.0 | 8.0 | 0.00 | 0.15 | 0.00 | 76 | 1011.4 |
| 20260509144558 | 24 | 0 | 0.0 | 8.0 | 0.00 | 0.15 | 0.00 | 77 | 1011.4 |
| 20260509144054 | 24 | 48 | 1.6 | 6.4 | 0.00 | 0.15 | 0.00 | 77 | 1011.3 |
| 20260509143554 | 23 | 53 | 0.0 | 6.4 | 0.00 | 0.15 | 0.00 | 79 | 1011.3 |
| 20260509143058 | 23 | 56 | 1.6 | 6.4 | 0.00 | 0.15 | 0.00 | 79 | 1011.2 |
| 20260509142554 | 23 | 57 | 1.6 | 8.0 | 0.00 | 0.15 | 0.00 | 78 | 1011.1 |
| 20260509142054 | 23 | 51 | 1.6 | 8.0 | 0.00 | 0.15 | 0.00 | 79 | 1011.2 |
| 20260509141554 | 23 | 32 | 0.0 | 4.8 | 0.00 | 0.15 | 0.00 | 80 | 1011.1 |
| 20260509141055 | 23 | 67 | 0.0 | 6.4 | 0.00 | 0.15 | 0.00 | 80 | 1011.0 |
| 20260509140554 | 22 | 0 | 1.6 | 6.4 | 0.00 | 0.15 | 0.00 | 80 | 1011.0 |
| 20260509140059 | 22 | 61 | 1.6 | 4.8 | 0.00 | 0.15 | 0.00 | 81 | 1011.0 |
| 20260509135556 | 22 | 67 | 1.6 | 3.2 | 0.00 | 0.15 | 0.00 | 82 | 1011.1 |
| 20260509135055 | 22 | 45 | 0.0 | 4.8 | 0.00 | 0.15 | 0.00 | 83 | 1011.1 |
| 20260509134607 | 21 | 101 | 0.0 | 4.8 | 0.00 | 0.15 | 0.00 | 85 | 1010.9 |
| 20260509134054 | 21 | 62 | 0.0 | 3.2 | 0.00 | 0.15 | 0.00 | 86 | 1010.8 |
| 20260509133555 | 21 | 43 | 0.0 | 3.2 | 0.00 | 0.15 | 0.00 | 87 | 1010.9 |
| 20260509133057 | 21 | 34 | 0.0 | 3.2 | 0.00 | 0.15 | 0.00 | 87 | 1010.8 |
| 20260509132555 | 20 | 0 | 0.0 | 3.2 | 0.00 | 0.15 | 0.00 | 88 | 1010.7 |
| 20260509132057 | 20 | 0 | 0.0 | 3.2 | 0.00 | 0.15 | 0.00 | 89 | 1010.6 |
| 20260509131634 | 20 | 0 | 0.0 | 1.6 | 0.00 | 0.15 | 0.00 | 89 | 1010.4 |
| 20260509131055 | 20 | 0 | 0.0 | 1.6 | 0.00 | 0.15 | 0.00 | 89 | 1010.5 |
| 20260509130554 | 20 | 0 | 0.0 | 1.6 | 0.00 | 0.15 | 0.00 | 90 | 1010.6 |
| 20260509130125 | 20 | 0 | 0.0 | 1.6 | 0.00 | 0.15 | 0.00 | 90 | 1010.5 |
| 20260509125554 | 20 | 0 | 0.0 | 0.0 | 0.00 | 0.15 | 0.00 | 91 | 1010.3 |
| 20260509125056 | 20 | 0 | 0.0 | 0.0 | 0.00 | 0.15 | 0.00 | 91 | 1010.3 |
| 20260509124554 | 20 | 0 | 0.0 | 1.6 | 0.00 | 0.15 | 0.00 | 91 | 1010.4 |
| 20260509124055 | 19 | 0 | 0.0 | 1.6 | 0.00 | 0.15 | 0.00 | 92 | 1010.2 |
| 20260509123555 | 19 | 0 | 0.0 | 1.6 | 0.00 | 0.15 | 0.00 | 92 | 1010.1 |
| 20260509123101 | 19 | 0 | 0.0 | 3.2 | 0.00 | 0.15 | 0.00 | 92 | 1010.2 |
| 20260509122554 | 19 | 0 | 0.0 | 3.2 | 0.00 | 0.15 | 0.00 | 92 | 1010.0 |
| 20260509122054 | 18 | 0 | 0.0 | 0.0 | 0.00 | 0.15 | 0.00 | 93 | 1010.1 |
| 20260509121554 | 18 | 0 | 0.0 | 0.0 | 0.00 | 0.15 | 0.00 | 93 | 1010.1 |
| 20260509121055 | 18 | 0 | 0.0 | 0.0 | 0.00 | 0.15 | 0.00 | 92 | 1010.1 |
| 20260509120556 | 18 | 0 | 0.0 | 0.0 | 0.00 | 0.15 | 0.00 | 92 | 1010.2 |
| 20260509120105 | 18 | 0 | 0.0 | 0.0 | 0.00 | 0.15 | 0.00 | 92 | 1010.1 |
| 20260509115554 | 18 | 0 | 0.0 | 0.0 | 0.00 | 0.15 | 0.00 | 92 | 1010.1 |
| 20260509115054 | 18 | 0 | 0.0 | 0.0 | 0.00 | 0.15 | 0.00 | 92 | 1010.1 |
| 20260509114608 | 18 | 0 | 0.0 | 0.0 | 0.00 | 0.15 | 0.00 | 92 | 1010.3 |
| 20260509114054 | 18 | 0 | 0.0 | 0.0 | 0.00 | 0.15 | 0.00 | 92 | 1010.3 |
| 20260509113555 | 19 | 0 | 0.0 | 0.0 | 0.00 | 0.15 | 0.00 | 92 | 1010.4 |
| 20260509113101 | 19 | 0 | 0.0 | 0.0 | 0.00 | 0.15 | 0.00 | 92 | 1010.4 |
| 20260509112555 | 19 | 0 | 0.0 | 0.0 | 0.00 | 0.15 | 0.00 | 92 | 1010.2 |
| 20260509112056 | 19 | 0 | 0.0 | 0.0 | 0.00 | 0.15 | 0.00 | 92 | 1010.5 |
| 20260509111555 | 19 | 0 | 0.0 | 0.0 | 0.00 | 0.15 | 0.00 | 92 | 1010.3 |
| 20260509111055 | 19 | 0 | 0.0 | 0.0 | 0.00 | 0.15 | 0.00 | 92 | 1010.2 |
| 20260509110555 | 20 | 0 | 0.0 | 0.0 | 0.00 | 0.15 | 0.00 | 93 | 1010.1 |
| 20260509110105 | 20 | 0 | 0.0 | 0.0 | 0.00 | 0.15 | 0.00 | 93 | 1010.0 |
| 20260509105559 | 20 | 0 | 0.0 | 0.0 | 0.00 | 0.15 | 0.00 | 93 | 1010.1 |
| 20260509105055 | 20 | 0 | 0.0 | 0.0 | 0.00 | 0.15 | 0.00 | 93 | 1009.8 |
| 20260509104608 | 20 | 0 | 0.0 | 0.0 | 0.00 | 0.15 | 0.00 | 92 | 1009.5 |
| 20260509104054 | 20 | 0 | 0.0 | 1.6 | 0.00 | 0.15 | 0.00 | 93 | 1009.7 |
| 20260509103556 | 20 | 0 | 0.0 | 3.2 | 0.00 | 0.15 | 0.00 | 93 | 1009.4 |
| 20260509103054 | 20 | 0 | 0.0 | 3.2 | 0.00 | 0.15 | 0.00 | 93 | 1009.4 |
| 20260509102554 | 20 | 32 | 0.0 | 3.2 | 0.00 | 0.15 | 0.00 | 93 | 1009.2 |
| 20260509102055 | 20 | 0 | 0.0 | 3.2 | 0.00 | 0.15 | 0.00 | 93 | 1009.2 |
| 20260509101554 | 20 | 0 | 0.0 | 8.0 | 0.00 | 0.15 | 0.00 | 93 | 1009.3 |
| 20260509101059 | 20 | 186 | 0.0 | 8.0 | 0.00 | 0.15 | 0.00 | 93 | 1008.1 |
| 20260509100555 | 20 | 320 | 0.0 | 8.0 | 0.00 | 0.15 | 0.00 | 93 | 1008.9 |
| 20260509100054 | 20 | 0 | 0.0 | 3.2 | 0.00 | 0.15 | 0.00 | 93 | 1008.3 |
| 20260509095557 | 20 | 0 | 0.0 | 3.2 | 0.00 | 0.15 | 0.00 | 93 | 1007.7 |
| 20260509095055 | 20 | 0 | 0.0 | 6.4 | 0.00 | 0.15 | 0.00 | 93 | 1007.6 |
| 20260509094610 | 20 | 0 | 0.0 | 6.4 | 0.00 | 0.15 | 0.00 | 93 | 1007.1 |
| 20260509094056 | 20 | 165 | 0.0 | 8.0 | 0.00 | 0.15 | 0.00 | 93 | 1006.7 |
| 20260509093555 | 20 | 0 | 0.0 | 8.0 | 0.00 | 0.15 | 0.00 | 93 | 1007.1 |
| 20260509093057 | 20 | 294 | 1.6 | 8.0 | 0.00 | 0.15 | 0.00 | 93 | 1006.8 |
| 20260509092557 | 20 | 242 | 1.6 | 8.0 | 0.00 | 0.15 | 0.00 | 93 | 1006.5 |
| 20260509092054 | 20 | 347 | 0.0 | 8.0 | 0.00 | 0.15 | 0.00 | 93 | 1006.8 |
| 20260509091556 | 20 | 0 | 1.6 | 8.0 | 0.00 | 0.15 | 0.00 | 93 | 1007.0 |
| 20260509091056 | 20 | 75 | 1.6 | 8.0 | 0.00 | 0.15 | 0.00 | 93 | 1007.0 |
| 20260509090555 | 20 | 285 | 3.2 | 8.0 | 0.00 | 0.15 | 0.00 | 93 | 1007.1 |
| 20260509085554 | 20 | 0 | 1.6 | 11.3 | 0.00 | 0.15 | 0.00 | 93 | 1008.1 |
| 20260509085055 | 20 | 45 | 3.2 | 11.3 | 0.00 | 0.15 | 0.00 | 93 | 1008.5 |
| 20260509084604 | 20 | 0 | 0.0 | 14.5 | 0.00 | 0.15 | 0.00 | 93 | 1008.4 |
| 20260509084055 | 20 | 49 | 3.2 | 14.5 | 0.00 | 0.15 | 0.00 | 93 | 1008.6 |
| 20260509083558 | 20 | 0 | 0.0 | 8.0 | 0.00 | 0.15 | 0.00 | 93 | 1008.7 |
| 20260509083052 | 20 | 210 | 1.6 | 8.0 | 0.00 | 0.15 | 0.00 | 93 | 1008.8 |
| 20260509082555 | 20 | 199 | 0.0 | 9.7 | 0.00 | 0.15 | 0.00 | 93 | 1008.8 |
| 20260509082055 | 20 | 196 | 1.6 | 9.7 | 0.00 | 0.15 | 0.00 | 93 | 1009.0 |
| 20260509081557 | 20 | 183 | 1.6 | 9.7 | 0.00 | 0.15 | 0.00 | 93 | 1008.9 |
| 20260509081055 | 20 | 76 | 3.2 | 9.7 | 0.00 | 0.15 | 0.00 | 93 | 1009.0 |
| 20260509080555 | 20 | 145 | 1.6 | 8.0 | 0.00 | 0.15 | 0.00 | 93 | 1009.2 |
| 20260509080057 | 20 | 71 | 1.6 | 8.0 | 0.00 | 0.15 | 0.00 | 93 | 1009.4 |
| 20260509075555 | 20 | 92 | 1.6 | 6.4 | 0.00 | 0.15 | 0.00 | 93 | 1009.7 |
| 20260509075056 | 20 | 196 | 3.2 | 6.4 | 0.00 | 0.15 | 0.00 | 93 | 1009.8 |
| 20260509074601 | 20 | 0 | 0.0 | 4.8 | 0.00 | 0.15 | 0.00 | 93 | 1010.1 |
| 20260509074057 | 20 | 0 | 0.0 | 4.8 | 0.00 | 0.15 | 0.00 | 93 | 1010.5 |
| 20260509073555 | 20 | 192 | 1.6 | 3.2 | 0.00 | 0.15 | 0.00 | 93 | 1011.1 |
| 20260509073054 | 20 | 102 | 0.0 | 1.6 | 0.00 | 0.15 | 0.00 | 93 | 1011.4 |
| 20260509072556 | 20 | 0 | 0.0 | 3.2 | 0.00 | 0.15 | 0.00 | 93 | 1011.5 |
| 20260509072055 | 20 | 0 | 0.0 | 3.2 | 0.00 | 0.15 | 0.00 | 93 | 1011.4 |
| 20260509071607 | 20 | 0 | 0.0 | 3.2 | 0.00 | 0.15 | 0.00 | 93 | 1011.8 |
| 20260509071056 | 20 | 0 | 0.0 | 1.6 | 0.00 | 0.15 | 0.00 | 93 | 1011.7 |
| 20260509070555 | 20 | 302 | 0.0 | 4.8 | 0.00 | 0.15 | 0.00 | 93 | 1011.9 |